Location: Unspecified
(47.9110°N, 14.3980°E)
Time: 08:14:29
(UTC+00:00)

SAR-Lupe-2 - Pass Details

Date: 06 August 2020
Orbit: 482 x 484 km, 98.1° (Epoch: 24 August)

Event Time Altitude Azimuth Distance (km) Brightness Sun altitude
Rises 20:51:05 0° 11° (NNE) 2,559 7.9 -18.8°
Reaches altitude 10° 20:53:09 10° 9° (N) 1,674 6.9 -19.0°
Maximum altitude 20:56:44 69° 287° (WNW) 521 3.8 -19.3°
Enters shadow 20:58:01 37° 214° (SW) 774 4.3 -19.4°
